44P/Reinmuth 2

Epoch 2008 Feb. 24.0 TT = JDT 2454520.5  

T 2008 Feb. 18.25748 TT                                 Nakano

q   2.1063826            (2000.0)            P               Q

n   0.13936141     Peri.   58.06835     +0.96009841     +0.26170899

a   3.6844644      Node   286.60045     -0.27849006     +0.86245300

e   0.4283070      Incl.    5.90475     -0.02557983     +0.43322422

P   7.07

From 417 observations 1993-2007, mean residual 0".70.

   Nongravitational parameters A1 = -0.03 +/- 0.02, A2 = -0.0501 +/- 0.0011.

Residuals in seconds of arc 

1993/                     941123 410  0.1-  0.4-    011114 402  0.1-  0.2-  

930226 691  0.7-  0.6+    941123 410  0.0   1.2-    011114 402  0.0   0.1-  

930226 691  0.7+  0.3+    941123 360  0.0   0.5-    011120 170  0.4+  0.9+  

930226 691 (2.5-  0.8-)   941123 360  0.1-  0.7-    011120 170  1.0+  0.8+  

930421 691  0.6-  1.3+    941124 897  0.3+  0.5+    011120 170  0.1-  0.1+  

930421 691  0.3+  1.6+    941124 897  0.3+  0.9-    011121 704  0.6-  1.5+  

930421 691  0.9-  1.6+    941124 605  0.8-  0.2-    011121 704  0.0   0.2+  

930422 691  0.8-  1.8+    941126 410  0.6-  0.3-    011121 704  0.3-  0.5+  

930422 691  0.4+  1.0+    941126 410  0.3-  0.3-    011121 704  0.6-  0.3-  

930422 691  1.5-  1.2+    941126 410  0.8+  0.0     011121 704  0.3-  0.3+  

930422 691  0.4-  1.9+    941129 675  0.1-  0.0     011123 349  0.1+  0.4-  

930529 691  0.9+  1.0+    941129 675  1.1+  0.8-    011123 349  0.3+  0.9-  

930529 691  0.2+  0.7+    941201 693  0.5-  0.1-    011123 349  0.3+  0.8-  

930529 691  0.3+  0.1+    941201 693  0.4-  1.1+    011124 213  0.4-  0.2-  

1994/                     941201 693  0.4+  0.2+    011124 213 (0.3-  2.9-) 

940605 360  0.3-  0.1+    941201 118  1.0-  0.3+    011124 704  1.1-  0.2-  

940605 360  0.1-  0.2+    941201 118  1.5-  0.7+    011124 704  0.8-  0.2-  

940707 360  0.0   0.3+    941201 605  0.8-  0.4-    011124 704  1.6-  0.1-  

940707 360  0.1-  0.4+    941201 605  0.7-  1.5-    011124 704  0.5-  0.3-  

940715 360  0.3+  0.4-    941202 118  0.4+  0.2+    011124 704  1.4-  0.8+  

940715 360  0.1+  0.2-    941203 118 (2.2+  1.1+)   011124 360  0.4+  0.6-  

940728 897  0.5-  0.4+    941203 118 (2.0+  0.0 )   011124 360  0.4+  0.4-  

940728 897  1.0-  0.2-    941204 897  1.2+  0.0     011206 213 (3.7-  1.7+) 

940728 897  0.9-  0.2-    941204 410  0.2-  0.6-    011206 213  0.3+  0.7-  

940803 360  0.3-  0.4-    941204 410  0.2+  0.7-    011206 213  0.8-  0.4-  

940803 360  0.2-  0.4-    941204 897  0.6+  1.4-    011207 340 (4.3-  2.4+) 

940803 605 (1.2-  2.3-)   941204 410  0.1+  0.5-    011207 340 (4.2-  4.0+) 

940803 605  0.5+  1.1+    941205 864  0.1+  0.6-    011207 340 (3.2-  3.1+) 

940803 605  0.3-  1.4+    941205 864  0.2-  1.1-    011208 349  0.4+  1.3+  

940803 605  0.5-  0.5-    941206 360  0.6+  0.3-    011208 349  0.5-  1.4+  

940804 897  1.1-  0.7-    941206 360  0.7+  0.4-    011208 232  1.5-  0.0   

940804 897  0.2-  0.0     941206 359  0.7+  0.8-    011208 232  0.6-  0.4+  

940805 410  0.7-  0.3-    941206 359  0.3-  0.2+    011208 232  1.1-  1.2+  

940805 410  1.1-  0.3-    941206 046  0.2+  0.5-    011209 704  1.0+  1.0+  

940806 605 (2.1-  2.2-)   941206 046  0.3-  0.2-    011209 704  0.5-  0.9+  

940806 605 (3.5+  0.6-)   941206 046  0.5+  0.5-    011209 704  0.5-  0.1-  

940806 605  1.5+  1.4+    941206 605 (0.9+  2.1-)   011209 704  0.4+  0.1-  

940809 605 (1.0+  2.9+)   941206 605 (0.7-  2.5-)   011209 704  1.2-  0.5+  

940809 605  1.5-  1.3+    941209 691  0.2+  0.8-    011213 170  0.5+  0.5-  

940813 381  0.1-  0.4-    941209 691  0.7+  0.8-    011213 170  0.2+  0.4-  

940813 381  1.4+  0.9+    941209 691  0.3+  0.7-    011213 127  0.0   0.1+  

940814 897  1.4-  0.4-    941222 360  0.7+  0.4-    011213 127  0.2+  0.0   

940814 897  0.5-  0.2+    941222 360  0.7+  0.4-    011213 170  0.7-  0.4+  

940814 605 (1.1+  2.1+)   941223 410  1.0+  0.5-    011214 235 (0.2-  2.1+) 

940814 605 (2.0-  0.4-)   941223 410  0.7+  0.4-    011215 704  0.2+  1.3+  

940814 605 (2.0-  2.2+)   941223 410  1.0+  0.2+    011215 704  0.2-  0.7+  

940815 360  0.2-  0.3-    941223 605  1.0+  1.6-    011215 704  0.3+  0.6+  

940815 360  0.3-  0.4-    941223 605  1.3+  0.8-    011215 704  0.0   0.5+  

940815 605  0.8-  0.8+    941229 410  1.2+  0.3-    011218 704  0.7+  1.8+  

940815 605  1.5-  0.9-    941229 410  0.4+  0.3-    011218 704  0.0   1.2+  

940901 658  0.1-  0.1+    941229 410  0.6+  0.3-    011218 704  0.1+  1.0+  

940901 658  0.0   0.0     941231 897  0.5+  0.2+    011218 704  0.1-  1.4+  

940901 658  0.1+  0.2+    941231 897  0.3-  0.9-    011218 704  0.5-  1.0+  

940902 658  0.3-  0.1-    1995/                     011218 235  0.0   1.4+  

940902 658  0.2-  0.1-    950102 410  0.4-  0.2+    011219 704  0.4+  1.1+  

940902 658  0.1-  0.1-    950102 410  0.3+  0.7+    011219 704  0.5+  0.5+  

940902 816  0.5+  0.7+    950102 410  0.5+  0.4-    011219 704  0.2+  1.3+  

940902 816  0.2-  0.3+    950103 691  0.6+  0.8-    011219 704  1.0+  1.3+  

940903 410  0.9-  0.1+    950103 691  0.1+  1.0-    011219 704 (2.9-  0.7+) 

940903 410  0.8-  0.2+    950103 691  0.0   1.1-    011219 170  1.0-  0.2+  

940905 816  0.4+  0.3+    950128 691  0.6+  0.5-    011219 170  1.5-  0.5+  

940905 816  0.5+  0.4+    950128 691  0.4+  0.3+    011219 170  1.0-  0.4+  

940905 816  0.2+  0.4-    950128 691  0.3+  0.8-    011220 704  0.8+  0.7+  

940905 605  0.1-  1.5+    950130 897  0.3-  1.0+    011220 704  0.8+  1.3-  

940905 605  0.3-  0.5+    950130 897  0.5+  1.1+    011220 704  0.9+  0.5+  

940905 605  0.3+  0.4+    950202 691  0.2-  0.5-    011220 704  0.0   0.3-  

940905 605  0.4-  0.4+    950202 691  0.2-  0.2-    011221 704  0.4-  0.5-  

940906 557  0.2+  0.1-    950202 691  0.3-  0.6-    011221 704  0.7+  0.8-  

940907 557  0.6+  0.1-    950204 360  0.3+  0.4-    011221 704  0.8+  0.8-  

940908 360  0.4+  0.2+    950204 360  0.6+  0.4-    011221 704  0.2+  1.7-  

940908 360  0.5+  0.0     950204 360  0.6+  0.0     011221 704  1.1+  1.3-  

940909 410  0.5-  0.2+    950216 897  1.0+  0.5+    011221 213  0.5-  0.4-  

940909 410  0.6-  0.3+    950216 897  0.7+  0.3+    011221 213  1.2+  1.5+  

940912 605  0.1-  1.0+    950216 897  1.0-  0.0     011221 213  0.7-  0.4+  

940912 605  0.0   1.4+    950217 360  0.3+  0.5-    011222 340  0.3-  0.0   

940913 360  0.4+  0.1+    950217 360  0.1+  0.5-    011222 340  0.1+  0.5+  

940913 360  0.5+  0.1+    950319 360  0.7+  0.0     011222 340  0.2-  0.6+  

940913 605 (2.1-  1.4+)   950319 360  0.8+  0.6+    011223 235  0.2+  0.2+  

940913 605  0.6-  0.6+    950319 360  1.0+  0.3+    011224 170  1.0+  0.7-  

940925 897  1.0-  0.1+    1996/                     011224 170  0.1+  0.1-  

940925 897  0.1+  0.4-    960121 691  1.8+  0.2+    011224 170  0.4-  0.2-  

940930 897  0.8-  0.5+    960121 691  1.9+  0.1+    011225 213 (2.2-  1.7-) 

940930 897  1.0-  0.2-    960121 691  1.5+  0.0     011225 213 (2.5-  1.9+) 

941001 675  1.0-  0.7-    1999/                     011225 213  0.4+  0.8+  

941001 675  0.9-  0.6-    990214 693  1.0-  1.1+    011225 170  0.0   0.5+  

941001 410  0.4-  0.1-    990214 693  1.0-  0.6+    011225 170  0.3-  0.2+  

941001 410  0.4-  0.1-    990214 693  1.8-  1.1+    2002/                   

941002 360  0.6+  0.3+    990416 693  1.2+  0.7+    020101 235  0.6-  0.8-  

941002 360  0.6+  0.3+    990416 693 (2.1+  0.2+)   020103 349  0.6-  0.6+  

941004 605  1.1+  0.4+    2000/                     020103 349  0.8-  0.6-  

941004 605  0.2+  0.6+    000529 360  0.4+  1.3+    020104 215  0.3+  0.2-  

941004 605  1.2+  0.7+    000529 360  0.7+  0.8+    020104 215  0.5+  0.2+  

941004 605  1.0+  0.4+    000607 704  0.0   1.2+    020104 215  0.1+  0.4-  

941004 605  0.4+  0.1+    000607 704  0.4+  1.4+    020104 235  1.9-  0.6+  

941005 046  0.3+  0.3-    000607 704  1.1+  1.4+    020108 704  1.1+  0.5+  

941005 046  0.3+  0.0     000708 349  1.7+  0.4+    020108 704  0.4+  1.2-  

941005 046  0.1+  0.2-    000708 349  0.7-  0.6-    020108 704  0.1+  0.2+  

941005 605  0.5+  0.4+    000721 360  0.7+  0.6+    020108 704  0.4+  1.3-  

941005 605  0.4+  0.1+    000721 360  0.9+  0.2+    020108 704  0.5+  1.3-  

941007 046  0.0   0.2+    000814 860 (3.6+  0.5+)   020108 340  0.7+  0.8+  

941007 046  0.0   0.0     000815 860 (3.5+  0.9+)   020108 340  0.2+  1.1+  

941007 046  0.7+  0.0     000823 360  1.1+  0.4+    020108 340  0.3-  0.4+  

941007 605  0.2+  0.3+    000823 360  1.0+  0.4+    020108 235  0.9+  0.2+  

941007 605  0.9-  0.5+    2001/                     020110 235  0.7+  0.6-  

941008 675  1.7-  0.4-    010813 170 (3.8+  0.9+)   020111 360  0.1+  0.0   

941008 675  1.7-  0.4-    010813 170 (2.6+  2.0+)   020111 360  0.3+  0.0   

941009 046  0.5+  0.2-    010823 352  0.1+  0.7+    020111 213  1.0+  0.2+  

941009 046  1.1+  0.2+    010823 352  0.2+  0.7+    020111 213  0.2-  0.4+  

941009 046  1.1+  0.3-    010823 352  1.5-  0.8+    020111 213  1.7-  0.0   

941010 046  0.1-  0.3+    010824 170  1.7-  0.4+    020114 704 (2.7+  1.1+) 

941010 046  0.3+  0.0     010828 360  0.2-  0.0     020114 704  1.3+  1.7-  

941010 046  0.0   0.0     010828 360  0.0   0.1-    020114 704  0.4+  1.0-  

941011 675  0.2+  0.1-    010829 170  0.5-  0.6+    020114 704 (2.4+  2.2-) 

941011 605  0.6+  1.2+    010829 170 (2.3+  0.6+)   020114 704 (0.3+  2.6-) 

941011 605  0.2+  1.2+    010922 704  0.3+  0.8+    020114 170  0.6-  0.3-  

941013 864  0.9+  0.1-    010922 704  0.4+  0.7+    020114 170  1.4+  0.9-  

941013 864  0.6+  0.0     010922 704  0.6-  1.1+    020116 235  0.9-  0.7+  

941013 605  1.2-  1.3-    010922 704  0.2+  0.8+    020118 704 (4.7+  2.9+) 

941013 605  1.0-  0.5-    010922 704  0.2+  0.8+    020118 704 (2.3+  0.3-) 

941013 605  0.9+  0.3-    010923 644  0.2-  0.1+    020118 704  0.7+  0.5-  

